This demonstration page uses our WeatherBlox Daily Observations layout. Learn more.

Left ArrowRight Arrow

30.21309, -93.2044

Hourly Observations for April 21, 2022

Temp ( °F °C ) Dew Point ( °F °C ) Humidity (%) Winds ( mph kmh ) Pressure ( in mb ) Visibility ( mi km ) Precip ( " mm )
12:15 am 00:15 Cloudy 69 20.4 66 18.8 91 91 ESE 8 13 30.10 1019 10 16 0.00 0.00
12:35 am 00:35 Mostly Cloudy 69 20.4 66 18.8 91 91 ESE 9 15 30.10 1019 10 16 0.00 0.00
12:55 am 00:55 Partly Cloudy 69 20.4 66 18.8 91 91 SE 9 15 30.10 1019 10 16 0.00 0.00
1:15 am 01:15 Clear 69 20.5 66 18.8 90 90 ESE 9 15 30.09 1019 10 16 0.00 0.00
1:35 am 01:35 Clear 68 20.2 66 18.8 92 92 SE 10 17 30.09 1019 10 16 0.00 0.00
1:55 am 01:55 Clear 69 20.4 66 18.9 91 91 SE 10 17 30.08 1019 10 16 0.00 0.00
2:15 am 02:15 Clear 69 20.3 66 18.9 92 92 SE 12 19 30.09 1019 10 16 0.00 0.00
2:35 am 02:35 Clear 69 20.3 66 18.9 92 92 SE 12 19 30.07 1018 10 16 0.00 0.00
2:55 am 02:55 Clear 69 20.3 66 18.9 92 92 SE 10 17 30.07 1018 10 16 0.00 0.00
3:15 am 03:15 Clear 69 20.4 66 18.9 91 91 SE 9 15 30.07 1018 10 16 0.00 0.00
3:35 am 03:35 Clear 69 20.5 66 18.9 91 91 SE 13 20 30.07 1018 10 16 0.00 0.00
3:55 am 03:55 Clear 69 20.4 66 18.9 91 91 SE 12 19 30.07 1018 10 16 0.00 0.00
4:15 am 04:15 Clear 69 20.4 66 18.9 91 91 SE 9 15 30.07 1018 10 16 0.00 0.00
4:35 am 04:35 Clear 68 20.2 66 18.8 92 92 SSE 8 13 30.07 1018 10 16 0.00 0.00
4:55 am 04:55 Clear 68 20.2 66 18.8 92 92 SE 8 13 30.07 1018 10 16 0.00 0.00
5:15 am 05:15 Clear 69 20.3 66 19 92 92 SE 8 13 30.08 1019 10 16 0.00 0.00
5:35 am 05:35 Clear 69 20.4 66 19.1 92 92 SE 10 17 30.08 1019 10 16 0.00 0.00
5:50 am 05:50 Clear 70 21 66 19 88 88 SE 7 11 30.09 1019 10 16 0.00 0.00
6:50 am 06:50 Mostly Cloudy with Mist and Fog 68 20 66 19 94 94 E 8 13 30.11 1020 5 8 0.00 0.00
7:50 am 07:50 Cloudy with Mist and Fog 70 21 68 20 94 94 ESE 12 19 30.13 1020 5 8 0.00 0.00
8:50 am 08:50 Cloudy with Mist and Fog 72 22 70 21 94 94 SE 13 20 30.15 1021 6 10 0.00 0.00
9:31 am 09:31 Cloudy 75 24 70 21 83 83 SSE 13 20 30.16 1021 10 16 0.00 0.00
9:47 am 09:47 Cloudy 77 25 70 21 79 79 SE 16 26 30.17 1022 10 16 0.00 0.00
10:55 am 10:55 Mostly Cloudy 82 28 68 20 62 62 SSE 16 26 30.19 1022 10 16 0.00 0.00
11:50 am 11:50 Partly Cloudy 82 28 66 19 58 58 SSE 17 28 30.20 1023 10 16 0.00 0.00
12:55 pm 12:55 Mostly Cloudy 84 29 66 19 55 55 SE 14 22 30.19 1022 10 16 0.00 0.00
1:50 pm 13:50 Mostly Cloudy 84 29 66 19 55 55 SE 21 33 30.18 1022 10 16 0.00 0.00
2:45 pm 14:45 Mostly Cloudy 82 28 68 20 62 62 SE 17 28 30.18 1022 10 16 0.00 0.00
3:50 pm 15:50 Mostly Cloudy 84 29 68 20 58 58 SE 16 26 30.18 1022 10 16 0.00 0.00
4:45 pm 16:45 Partly Cloudy 81 27 66 19 62 62 SE 20 31 30.18 1022 10 16 0.00 0.00
5:47 pm 17:47 Partly Cloudy 81 27 66 19 62 62 SE 20 31 30.18 1022 10 16 0.00 0.00
6:53 pm 18:53 Mostly Sunny 79 26 63 17 58 58 SSE 17 28 30.18 1022 10 16 0.00 0.00
7:45 pm 19:45 Mostly Clear 75 24 63 17 65 65 SE 12 19 30.19 1022 10 16 0.00 0.00
8:45 pm 20:45 Mostly Clear 68 20 63 17 83 83 SSE 12 19 30.19 1022 10 16 0.00 0.00
9:55 pm 21:55 Mostly Clear 68 20 64 18 88 88 SSE 8 13 30.21 1023 10 16 0.00 0.00
10:15 pm 22:15 Clear 68 20.2 64 17.8 86 86 SE 7 11 30.21 1023 10 16 0.00 0.00
10:35 pm 22:35 Clear 69 20.4 64 18 86 86 SE 7 11 30.21 1023 10 16 0.00 0.00
10:55 pm 22:55 Clear 68 20.1 64 18 88 88 SSE 6 9 30.21 1023 10 16 0.00 0.00
11:15 pm 23:15 Clear 67 19.6 64 17.8 89 89 SSE 6 9 30.22 1023 10 16 0.00 0.00
11:35 pm 23:35 Clear 67 19.3 64 17.6 90 90 SSE 7 11 30.22 1023 10 16 0.00 0.00
11:55 pm 23:55 Clear 67 19.3 64 17.7 91 91 SE 5 7 30.22 1023 10 16 0.00 0.00

Powered by AerisWeather